Find Starlink 38378

NORAD ID: 100527 Int'l Des: 2026-197 Owner: SPXS Country: US Constellation: starlink operational

当前视图

正在加载3D地球...

About Starlink 38378

Starlink 38378 (NORAD 100527) is a starlink constellation satellite launched Aug 25, 2026 by SPXS of US. with a mass of 575.00 kg.

即将过境

Passes for default location (London). Set your location on the main map for personalized predictions.

高度历史

Loading altitude history...

两行轨道根数

1 A0527U 26197AB 26251.44635468 .00147049 00000-0 70323-3 0 9998
2 A0527 69.9993 156.1283 0003355 272.9828 87.0990 15.82208418 2083
Epoch: Sep 8, 2026 • Age: 9 hours

当前状态

高度 346.8 km
远地点 / 近地点 N/A
速度 7.70 km/s
星下点 -68.50°S, 168.37°E
发射日期 Aug 25, 2026
运行时间 14 days
类型 internet

技术详情

分类 Payload
质量 575.00 kg
干质量 530.00 kg
总质量 575.00 kg
长度 0.30 m
直径 4.10 m
跨度 29.00 m
形状 Box + pan
制造商 SPXS
平台类型 Starlink V2MO
阶段状态 In Orbit
所有者/国家 SPXS/US

Most Searched